Tracking 17264 objects as of 1-September-2015
HD Live streaming from Space Station

COSMOS 2251 DEB

Track COSMOS 2251 DEB now!
10-day predictions
COSMOS 2251 DEB is classified as:


NORAD ID: 34473
Int'l Code: 1993-036TS
Perigee: 739.3 km
Apogee: 772.8 km
Inclination: 74.0 °
Period: 99.8 minutes
Semi major axis: 7127 km
RCS: 0.0156 m2 (small)
Launch date: June 16, 1993
Source: Commonwealth of Independent States (former USSR) (CIS)

Note: This is SATELLITE DEBRIS
Your satellite tracking list
Your tracking list is empty





NASA's NSSDC Master Catalog

Two Line Element Set (TLE):
1 34473U 93036TS  15243.92481692 +.00001595 +00000-0 +48355-3 0  9996
2 34473 074.0366 317.8094 0023535 208.8991 266.8922 14.42900462342192

Source of the keplerian elements: AFSPC

N2YO: 334